This is the latest recevied weather packets stored in our database for station/object WB0VGI-1. If no packets are shown the sender has not sent any weather packets the latest 10 day(s).
| Time | Temp. | Humidity | Pressure | Rain* | Wind** | Luminosity | Snow |
|---|---|---|---|---|---|---|---|
| 1778065626 | 2.78° C | 72% | 1019.4 hPa | 0 mm | - | - | - |
| 1778064426 | 2.22° C | 71% | 1019.1 hPa | 0 mm | - | - | - |
| 1778063226 | 2.22° C | 70% | 1019 hPa | 0 mm | - | - | - |
| 1778062026 | 2.22° C | 70% | 1019.1 hPa | 0 mm | - | - | - |
| 1778060826 | 2.78° C | 71% | 1019 hPa | 0 mm | - | - | - |
| 1778059626 | 2.22° C | 71% | 1018.9 hPa | 0 mm | - | - | - |
| 1778058426 | 2.22° C | 73% | 1018.8 hPa | 0 mm | - | - | - |
| 1778057226 | 2.22° C | 73% | 1018.9 hPa | 0 mm | - | - | - |
| 1778056026 | 2.22° C | 72% | 1018.8 hPa | 0 mm | - | - | - |
| 1778054825 | 1.67° C | 73% | 1018.5 hPa | 0 mm | - | - | - |
| 1778053625 | 1.67° C | 74% | 1018.6 hPa | 0 mm | - | - | - |
| 1778052425 | 1.67° C | 74% | 1018.7 hPa | 0 mm | - | - | - |
| 1778051226 | 1.67° C | 73% | 1018.6 hPa | 0 mm | - | - | - |
| 1778050026 | 1.67° C | 72% | 1018.8 hPa | 0 mm | - | - | - |
| 1778048826 | 1.11° C | 72% | 1018.8 hPa | 0 mm | - | - | - |
| 1778047626 | 1.67° C | 69% | 1018.7 hPa | 0 mm | - | - | - |
| 1778046425 | 2.22° C | 67% | 1018.6 hPa | 0 mm | - | - | - |
| 1778045225 | 2.22° C | 68% | 1018.5 hPa | 0 mm | - | - | - |
| 1778044025 | 2.22° C | 68% | 1018.4 hPa | 0 mm | - | - | - |
| 1778042825 | 2.78° C | 65% | 1018.3 hPa | 0 mm | - | - | - |
| 1778041625 | 2.78° C | 64% | 1018.1 hPa | 0 mm | - | - | - |
| 1778040426 | 3.33° C | 64% | 1018 hPa | 0 mm | - | - | - |
| 1778039225 | 3.89° C | 64% | 1017.7 hPa | 0 mm | - | - | - |
| 1778038025 | 3.89° C | 64% | 1017.6 hPa | 0 mm | - | - | - |
| 1778036825 | 4.44° C | 63% | 1017.5 hPa | 0 mm | - | - | - |
* Rain latest hour (hover to see other rain measurements)
** Current wind speed in m/s (hover to see current wind gust speed)